User: anonymous
Location: Unspecified
(0.0000°N, 0.0000°E)
Time: 07:47:56
(UTC+00:00)
Language:

IBEX - Orbit

View from above orbital plane
View from above orbital plane
View from above satellite
View from above satellite

Ground track
Ground track

The orbit data is extracted from the following two-line orbital elements,

1 33401U 08051A   14213.38027771 -.00002615  00000-0  00000+0 0  1054
2 33401 008.7190 128.4379 6667845 027.1207 357.5049 00.12188156  2482
Epoch (UTC): 01 August 2014 09:07:35
Eccentricity: 0.6667845
inclination: 8.7190°
perigee height: 50879 km
apogee height: 280029 km
right ascension of ascending node: 128.4379°
argument of perigee: 27.1207°
revolutions per day: 0.12188156
mean anomaly at epoch: 357.5049°
orbit number at epoch: 248

The dashed part of the orbit path shows where the satellite is in the earth's shadow,  

DLR